Hourly Data Report for April 14, 2019

MIRAMICHI RCS
NEW BRUNSWICK
Current Station Operator: ECCC - MSC

47°00'34.000" N
65°27'54.000" W
33.00 m
8100989
71744
ACQ

Download Data

Hourly Data (April 2019)
Hourly Data Report for April 14, 2019
TIME
LST
Temp Definition
°C
Dew Point Definition
°C
Rel Hum Definition
%
Precip. Amount Definition
mm

Wind Dir Definition
10's deg

Wind Spd Definition
km/h
Visibility Definition
km
Stn Press Definition
kPa
Hmdx Definition


Wind Chill Definition


Weather Definition


00:00 7.8 4.0 77 0.0 26 7   100.37     LegendNANA
01:00 3.4 1.7 88 0.0 24 8   100.34     LegendNANA
02:00 5.9 0.9 71 0.0 33 6   100.40     LegendNANA
03:00 2.1 -0.1 85 0.0 31 5   100.50     LegendNANA
04:00 5.1 0.3 71 0.0 31 3   100.49     LegendNANA
05:00 2.0 -0.7 83 0.0 23 11   100.58     LegendNANA
06:00 2.2 -1.2 78 0.0 26 9   100.65     LegendNANA
07:00 3.4 -1.3 71 0.0 24 7   100.74     LegendNANA
08:00 6.1 -1.7 58 0.0 26 12   100.76     LegendNANA
09:00 7.2 -3.2 48 0.0 28 18   100.74     LegendNANA
10:00 8.6 -3.0 44 0.0 28 19   100.71     LegendNANA
11:00 9.4 -3.5 40 0.0 29 20   100.68     LegendNANA
12:00 10.3 -4.5 35 0.0 30 22   100.68     LegendNANA
13:00 11.1 -4.2 34 0.0 30 17   100.61     LegendNANA
14:00 11.5 -3.5 35 0.0 29 17   100.64     LegendNANA
15:00 11.6 -4.0 34 0.0 30 16   100.63     LegendNANA
16:00 11.2 -4.0 34 0.0 29 15   100.63     LegendNANA
17:00 11.4 -4.0 34 0.0 31 12   100.67     LegendNANA
18:00 10.8 -4.4 34 0.0 28 12   100.71     LegendNANA
19:00 9.4 -4.3 38 0.0 33 5   100.80     LegendNANA
20:00 7.5 -3.5 46 0.0 2 4   100.80     LegendNANA
21:00 6.8 -4.0 46 0.0 4 5   100.90     LegendNANA
22:00 4.4 -1.6 65 0.0 9 9   100.85     LegendNANA
23:00 4.4 -1.7 64 0.0 10 8   100.77     LegendNANA

Notes on Data Quality.

Legend

  • E = Estimated
  • M = Missing
  • NA = Not Available*
  • [empty] = Indicates an unobserved value
Date modified: